OBJECT E, 45915

Orbit data source: Space-Track

You're viewing an Uncataloged Satellite

Recently launched and/or uncataloged satellites may have evolving metadata. Metadata may include but not limited to: Owner, Maufacturer, Bus, Motor, and Mission.

OBJECT E, 45915 is a satellite owned by TsNIIKhM (CIS) in SSO that was launched on Mon, 25 Nov 2019 UTC via a SOYUZ-2-1V launch vehicle from the Plesetsk Missile And Space Complex (PKMTR). Unknown objects in Earth's orbit typically refer to objects detected orbiting the Earth but have not yet been identified or cataloged. These objects could be anything from previously untracked satellites, spent rocket stages, debris from satellite collisions, or even natural meteoroids temporarily captured by Earth's gravity.

Loading next visibility...
Identifier
45915, 2019-079E
Orbit
SSO
Country
Flag of CISCIS
Related business
Manufacturer
TsNIIKhM
Mission
Defense Technology
Bus & Motor
Unknown
Mass
Unknown
Launch date (UTC)
2019-11-25 (7 years ago)
Launch vehicle
SOYUZ-2-1V
Launch site
Plesetsk Missile And Space Complex (PKMTR)
Object type
Unknown
Shape & HBR
Unknown shape, 0.4 m
Radar Cross Section
Medium (>0.1 m² and <1 m²)

Expand to show TLE details & history
Last TLE update: 22 hours ago

TLE from 22 hours ago
0 OBJECT E
1 45915U 19079E   26172.50653703  .00002964  00000-0  26911-3 0  9990
2 45915  97.6641 176.8888 0168624 334.2857  25.0043 14.85816656320294
Epoch: 2026-06-21T12:09Z
TLE epoch observation values (Epoch: 2026-06-21T12:09:24.799Z)
Latitude
-0.00009°
Longitude
84.82966°
Altitude
507.594 km
Speed
7.668 km/s
True Right ascension
11h 47m 33s
True Declination
0° 00' 00"
Sunlit
Object was in daylight at epoch
Visualization orbit readout
Latitude
Unknown
Longitude
Unknown
Altitude
Unknown
Speed
Unknown
Apparent Right ascension
Unknown
Apparent Declination
Unknown
Sunlit
N/A
Visualization observer readout
Local Sidereal Time
21:39:30
Azimuth
Unknown
Elevation
Unknown
Doppler factor
Unknown
Orbital elements
Apogee altitude
725.849 km
Perigee altitude
490.241 km
Semi-major axis
6,986.182 km
Eccentricity
0.01686
Inclination
97.6641°
RAAN
176.8888°
Arg. of periapsis
334.2857°
True anomaly
25.83692°
Mean anomaly
25.0043°
Eccentric anomaly
25.419°
Mean motion
3.71692 °/min
Orbital period
96.85 mins
BSTAR
0.00026911
Loading maneuver chart data...
Computing Atmospheric mass density...
Loading historical data...
Loading historical data...
Loading historical data...
Loading historical data...
Loading historical data...
Loading historical data...
Loading historical data...

Documentation

Showing up to 5 results
|